, AK

(GMT )
Portage Glacier

Weather History for PATO - February, 2013

Change the Weather History Date:

Friday, February 8, 2013

  Actual Average Record
Temperature  
Mean Temperature 28 °F -  
Max Temperature 36 °F - - ()
Min Temperature 21 °F - - ()
Degree Days  
Heating Degree Days 36    
Moisture  
Dew Point 28 °F    
Average Humidity 95    
Maximum Humidity 100    
Minimum Humidity 82    
Precipitation  
Precipitation 0.08 in - - ()
Sea Level Pressure  
Sea Level Pressure 29.67 in    
Wind  
Wind Speed 4 mph (SE)    
Max Wind Speed 17 mph    
Max Gust Speed 41 mph    
Visibility 7 miles    
Events Rain , Snow    
Averages and records for this station are not official NWS values.
T = Trace of Precipitation, MM = Missing Value Source: NWS Daily Summary

Daily Weather History Graph

Daily Weather History Graph

Search for Another Location

Airport or City:

Trip Planner

Search our weather history database for the weather conditions in past years. The results will help you decide how hot, cold, wet, or windy it might be!

Date:

Astronomy

Feb. 08, 2013 Rise Set
Actual Time 8:54 AM AKST 5:25 PM AKST
Civil Twilight 8:07 AM AKST 6:12 PM AKST
Nautical Twilight 7:16 AM AKST 7:03 PM AKST
Astronomical Twilight 6:27 AM AKST 7:52 PM AKST
Moon 7:42 AM AKST (2/8) 4:03 PM AKST (2/8)
Length of Visible Light 10h 05m
Length of Day
8h 31m
Waning Crescent, 3% of the Moon is Illuminated
Feb 8
Waning Crescent
Feb 9
New
Feb 17
First Quarter
Feb 25
Full
Mar 4
Last Quarter

Hourly Weather History & Observations

Time (AKST) Temp. Windchill Dew Point Humidity Pressure Visibility Wind Dir Wind Speed Gust Speed Precip Events Conditions
12:53 AM 34.0 °F 31.0 °F 30.9 °F 89% 29.40 in 10.0 mi Variable 3.5 mph - N/A   Overcast
1:53 AM 33.1 °F 30.0 °F 30.0 °F 89% 29.41 in 10.0 mi East 3.5 mph - N/A   Overcast
2:53 AM 30.9 °F - 30.9 °F 100% 29.44 in 10.0 mi Calm Calm - N/A   Overcast
3:53 AM 30.0 °F 26.5 °F 30.0 °F 100% 29.45 in 10.0 mi West 3.5 mph - N/A   Overcast
4:53 AM 28.9 °F - 28.9 °F 100% 29.47 in 10.0 mi Calm Calm - N/A   Partly Cloudy
5:53 AM 28.0 °F - 28.0 °F 100% 29.50 in 10.0 mi Calm Calm - N/A   Overcast
6:53 AM 24.1 °F - 24.1 °F 100% 29.53 in 10.0 mi Calm Calm - N/A   Partly Cloudy
7:26 AM 24.1 °F 19.7 °F 24.1 °F 100% 29.55 in 5.0 mi ENE 3.5 mph - N/A   Mostly Cloudy
7:48 AM 23.0 °F - 23.0 °F 100% 29.56 in 7.0 mi Calm Calm - N/A   Overcast
7:53 AM 24.1 °F 19.7 °F 23.0 °F 96% 29.57 in 7.0 mi South 3.5 mph - N/A   Overcast
8:37 AM 23.0 °F - 21.9 °F 96% 29.59 in 2.5 mi Calm Calm - N/A   Overcast
8:45 AM 21.9 °F - 21.9 °F 100% 29.59 in 0.8 mi Calm Calm - N/A   Overcast
8:53 AM 21.9 °F - 21.9 °F 100% 29.60 in 1.0 mi Calm Calm - N/A   Mist
9:22 AM 21.9 °F - 21.0 °F 96% 29.62 in 0.8 mi Calm Calm - N/A   Overcast
9:30 AM 21.9 °F - 21.0 °F 96% 29.62 in 1.0 mi Calm Calm - N/A   Overcast
9:37 AM 21.0 °F - 21.0 °F 100% 29.63 in 2.0 mi Calm Calm - N/A   Overcast
9:48 AM 21.2 °F - 21.2 °F 100% 29.63 in 4.0 mi Calm Calm - N/A   Overcast
9:53 AM 21.9 °F 17.2 °F 21.9 °F 100% 29.64 in 4.0 mi East 3.5 mph - N/A   Overcast
10:53 AM 24.1 °F - 23.0 °F 96% 29.67 in 10.0 mi Calm Calm - N/A   Scattered Clouds
11:53 AM 21.0 °F 16.2 °F 21.0 °F 100% 29.69 in 7.0 mi ESE 3.5 mph - N/A   Partly Cloudy
12:53 PM 25.0 °F - 25.0 °F 100% 29.71 in 10.0 mi Calm Calm - N/A   Clear
1:53 PM 26.1 °F - 25.0 °F 96% 29.73 in 10.0 mi Calm Calm - N/A   Clear
2:53 PM 33.1 °F 25.5 °F 28.9 °F 85% 29.75 in 10.0 mi East 9.2 mph - N/A   Clear
3:37 PM 33.1 °F 26.1 °F 30.9 °F 92% 29.77 in 10.0 mi SSE 8.1 mph - N/A   Mostly Cloudy
3:53 PM 33.1 °F 26.1 °F 30.9 °F 92% 29.78 in 10.0 mi SSE 8.1 mph - N/A   Mostly Cloudy
4:00 PM 33.1 °F 26.1 °F 30.9 °F 92% 29.77 in 10.0 mi SE 8.1 mph - N/A   Mostly Cloudy
4:14 PM 33.1 °F 25.5 °F 30.9 °F 92% 29.78 in 10.0 mi SSE 9.2 mph - N/A   Overcast
4:27 PM 33.1 °F 25.5 °F 30.9 °F 92% 29.78 in 10.0 mi SSE 9.2 mph 17.3 mph N/A   Mostly Cloudy
4:53 PM 33.1 °F 24.9 °F 30.9 °F 92% 29.79 in 10.0 mi SE 10.4 mph 17.3 mph N/A   Mostly Cloudy
5:20 PM 33.1 °F 25.5 °F 30.9 °F 92% 29.79 in 7.0 mi SE 9.2 mph 17.3 mph N/A   Overcast
5:53 PM 33.1 °F 26.1 °F 32.0 °F 96% 29.80 in 10.0 mi SE 8.1 mph - N/A   Overcast
6:53 PM 34.0 °F 27.2 °F 32.0 °F 92% 29.80 in 9.0 mi SSE 8.1 mph 17.3 mph 0.00 in   Overcast
7:22 PM 33.1 °F 24.4 °F 32.0 °F 96% 29.80 in 7.0 mi SSE 11.5 mph 19.6 mph 0.00 in Snow Light Snow
7:53 PM 33.1 °F 24.4 °F 32.0 °F 96% 29.81 in 5.0 mi SSE 11.5 mph 21.9 mph 0.00 in Snow Light Snow
8:08 PM 33.1 °F 26.1 °F 32.0 °F 96% 29.80 in 4.0 mi SSE 8.1 mph 24.2 mph 0.00 in Snow Light Snow
8:30 PM 33.1 °F 25.5 °F 32.0 °F 96% 29.81 in 7.0 mi SE 9.2 mph 19.6 mph 0.00 in   Overcast
8:53 PM 36.0 °F 28.5 °F 32.0 °F 86% 29.82 in 9.0 mi SE 10.4 mph 24.2 mph 0.00 in Rain Light Rain
9:53 PM 36.0 °F 28.0 °F 30.9 °F 82% 29.81 in 7.0 mi SE 11.5 mph 26.5 mph 0.00 in Rain Light Rain
10:12 PM 36.0 °F 27.5 °F 32.0 °F 86% 29.80 in 5.0 mi SE 12.7 mph 26.5 mph 0.00 in Snow Light Snow
10:53 PM 36.0 °F 27.5 °F 32.0 °F 86% 29.79 in 6.0 mi East 12.7 mph 29.9 mph 0.03 in Rain Light Rain
11:53 PM 36.0 °F 26.0 °F 30.9 °F 82% 29.77 in 3.0 mi ESE 17.3 mph 41.4 mph 0.05 in Snow Light Snow